TimeCDT,TemperatureF,Dew PointF,Humidity,Sea Level PressureIn,VisibilityMPH,Wind Direction,Wind SpeedMPH,Gust SpeedMPH,PrecipitationIn,Events,Conditions,WindDirDegrees,DateUTC
12:53 AM,64.9,63.0,93,29.96,10.0,South,3.5,-,0.01,Rain,Light Rain,190,2013-09-14 05:53:00
1:04 AM,64.4,62.6,94,30.08,10.0,South,4.6,-,0.00,Rain-Thunderstorm,Light Rain,170,2013-09-14 06:04:00
1:19 AM,64.4,62.6,94,30.07,10.0,SSE,5.8,-,0.00,Rain,Light Rain,150,2013-09-14 06:19:00
1:53 AM,64.9,63.0,93,29.94,10.0,SSE,5.8,-,0.14,Rain,Light Rain,150,2013-09-14 06:53:00
2:53 AM,64.9,62.1,90,29.91,10.0,ESE,6.9,-,0.01,,Overcast,110,2013-09-14 07:53:00
3:53 AM,64.0,62.1,93,29.93,10.0,SE,8.1,-,N/A,,Overcast,140,2013-09-14 08:53:00
4:53 AM,63.0,61.0,93,29.92,10.0,SE,3.5,-,N/A,,Clear,140,2013-09-14 09:53:00
5:13 AM,62.6,60.8,94,30.03,10.0,Calm,Calm,-,N/A,,Mostly Cloudy,0,2013-09-14 10:13:00
5:53 AM,64.0,61.0,90,29.93,10.0,Calm,Calm,-,N/A,,Overcast,0,2013-09-14 10:53:00
6:53 AM,64.0,62.1,93,29.93,10.0,Calm,Calm,-,N/A,,Overcast,0,2013-09-14 11:53:00
7:13 AM,64.4,62.6,94,30.02,10.0,Calm,Calm,-,N/A,,Overcast,0,2013-09-14 12:13:00
7:28 AM,64.4,62.6,94,30.02,10.0,SE,3.5,-,N/A,,Mostly Cloudy,130,2013-09-14 12:28:00
7:43 AM,64.4,62.6,94,30.02,10.0,SSE,4.6,-,N/A,,Scattered Clouds,150,2013-09-14 12:43:00
7:53 AM,64.9,63.0,93,29.93,10.0,SSE,4.6,-,N/A,,Scattered Clouds,150,2013-09-14 12:53:00
8:04 AM,64.4,62.6,94,30.03,9.0,SSE,4.6,-,N/A,,Mostly Cloudy,160,2013-09-14 13:04:00
8:42 AM,64.4,64.4,100,30.04,9.0,South,3.5,-,N/A,,Overcast,170,2013-09-14 13:42:00
8:53 AM,66.0,63.0,90,29.94,9.0,SSE,3.5,-,N/A,,Overcast,160,2013-09-14 13:53:00
9:41 AM,66.2,64.4,94,30.03,9.0,South,5.8,-,N/A,,Mostly Cloudy,170,2013-09-14 14:41:00
9:53 AM,68.0,64.9,90,29.94,10.0,South,10.4,-,N/A,,Scattered Clouds,190,2013-09-14 14:53:00
10:21 AM,69.8,64.4,83,30.03,10.0,South,15.0,19.6,N/A,,Mostly Cloudy,190,2013-09-14 15:21:00
10:53 AM,73.0,64.9,76,29.92,10.0,South,17.3,21.9,N/A,,Scattered Clouds,190,2013-09-14 15:53:00
11:04 AM,71.6,64.4,78,30.03,10.0,SSW,18.4,-,N/A,,Mostly Cloudy,200,2013-09-14 16:04:00
11:53 AM,75.0,64.0,69,29.90,10.0,SSW,18.4,23.0,N/A,,Mostly Cloudy,200,2013-09-14 16:53:00
12:53 PM,77.0,64.9,66,29.89,10.0,SSW,13.8,21.9,N/A,,Mostly Cloudy,210,2013-09-14 17:53:00
1:53 PM,80.1,64.9,60,29.86,10.0,SSW,13.8,23.0,N/A,,Partly Cloudy,210,2013-09-14 18:53:00
2:53 PM,82.0,62.1,51,29.83,10.0,SSW,15.0,23.0,N/A,,Clear,200,2013-09-14 19:53:00
3:53 PM,82.0,60.1,47,29.81,10.0,SSW,15.0,23.0,N/A,,Clear,200,2013-09-14 20:53:00
4:53 PM,82.9,60.1,46,29.80,10.0,SW,13.8,20.7,N/A,,Partly Cloudy,220,2013-09-14 21:53:00
5:53 PM,84.0,57.0,40,29.78,10.0,SSW,13.8,24.2,N/A,,Clear,210,2013-09-14 22:53:00
6:53 PM,81.0,57.9,45,29.79,10.0,SSW,8.1,-,N/A,,Clear,210,2013-09-14 23:53:00
7:53 PM,75.9,60.1,58,29.80,10.0,SSW,4.6,-,N/A,,Clear,210,2013-09-15 00:53:00
8:53 PM,73.9,61.0,64,29.81,10.0,South,6.9,-,N/A,,Clear,190,2013-09-15 01:53:00
9:53 PM,73.0,62.1,68,29.83,10.0,South,8.1,-,N/A,,Overcast,180,2013-09-15 02:53:00
10:53 PM,73.0,63.0,71,29.83,10.0,South,10.4,-,N/A,,Partly Cloudy,170,2013-09-15 03:53:00
11:53 PM,72.0,63.0,73,29.84,10.0,South,11.5,-,N/A,,Clear,170,2013-09-15 04:53:00